Location: Wells
(51.2093°N, 2.6446°W)
Time: 13:04:39
(UTC+01:00)

STARS - Pass Details

Date: 23 March 2026
Orbit: 575 x 588 km, 98.2° (Epoch: 14 April)

Event Time Altitude Azimuth Distance (km) Brightness Sun altitude
Rises 02:58:46 0° 9° (N) 2,801 ? -27.6°
Reaches altitude 10° 03:00:59 10° 3° (N) 1,898 ? -27.4°
Enters shadow 03:03:10 28° 345° (NNW) 1,108 ? -27.1°
